[[{"header":{"parameterUnit":"m.s-1","parameterCategory":2,"la1":30.2991,"la2":30.254,"lo1":-89.0895,"lo2":-89.0444,"dy":0.0017,"dx":0.0017,"nx":28,"ny":28,"refTime":"2023-05-26T21:00:00:Z","depth":"0","parameterNumber":2,"parameterNumberName":"U-component_of_CURRENTS"},"data":[0,0,0,0,0,0,0,0,0,0,0,0,0,0,0,0,0,0,0,0,0,0,0,0,0,0,0,0,0,0,0,0,0,0,0,0,0,0,0,0,0,0,0,0,0,0,0,0,0,0,0,0,0,0,0,0,0,0,-0.2392,-0.2392,0,-0.2411,-0.2411,-0.2411,-0.2375,-0.2374,-0.2373,-0.2373,-0.2314,-0.2313,-0.2313,0,0,0,0,0,0,0,0,0,0,0,0,0,-0.2318,-0.2319,-0.2392,-0.2392,-0.2393,-0.2411,-0.2411,-0.2411,-0.2376,-0.2374,-0.2373,-0.2372,-0.2314,-0.2313,-0.2313,0,0,0,0,0,0,0,0,0,0,0,0,0,-0.2343,-0.232,-0.2391,-0.2379,-0.2378,-0.2411,-0.2411,-0.2411,-0.2376,-0.2374,-0.2373,-0.2372,-0.2314,-0.2313,-0.2313,-0.2335,0,0,-0.2309,-0.2309,0,0,0,0,0,0,0,0,-0.2341,-0.2345,-0.238,-0.238,-0.2379,-0.2392,-0.2364,-0.2383,-0.2376,-0.2374,-0.2373,-0.2371,-0.2336,-0.2333,-0.2337,-0.2332,-0.233,-0.2309,-0.2309,-0.2308,-0.2308,0,0,0,0,0,0,0,-0.234,-0.2344,-0.2397,-0.2381,-0.238,-0.2371,-0.2372,-0.2368,-0.2359,-0.2374,-0.2372,-0.2379,-0.2334,-0.2338,-0.2335,-0.2329,-0.2309,-0.2309,-0.2308,-0.2308,-0.2345,-0.2347,0,0,0,0,0,0,-0.2345,-0.2343,-0.2396,-0.2398,-0.2359,-0.2374,-0.2375,-0.2387,-0.2361,-0.2357,-0.238,-0.2377,-0.2341,-0.2336,-0.2333,-0.2354,-0.2308,-0.2307,-0.2307,-0.2344,-0.2345,-0.2347,0,0,0,0,0,0,-0.2343,-0.235,-0.2395,-0.2372,-0.2377,-0.2377,-0.239,-0.2388,-0.2386,-0.2367,-0.236,-0.2379,-0.2339,-0.2334,-0.2338,-0.2351,-0.2307,-0.2306,-0.2342,-0.2344,-0.2346,-0.2398,0,0,0,0,0,0,-0.2341,-0.2349,-0.2352,-0.2373,-0.2379,-0.2423,-0.2392,-0.239,-0.2394,-0.239,-0.2364,-0.2358,-0.2338,-0.234,-0.2338,-0.2349,-0.2305,-0.234,-0.2343,-0.2346,-0.2394,-0.2402,-0.2408,0,0,0,0,0,-0.2339,-0.2356,-0.2352,-0.2358,-0.2386,-0.2424,-0.2427,-0.2419,-0.2396,-0.2408,-0.2391,-0.2358,-0.2357,-0.2341,-0.2337,-0.2349,-0.2338,-0.2342,-0.2345,-0.2391,-0.24,-0.2408,0,0,0,0,0,0,-0.2322,-0.2355,-0.2351,-0.2375,-0.24,-0.2419,-0.2429,-0.2423,-0.242,-0.241,-0.2379,-0.2374,-0.2383,-0.2366,-0.235,-0.2372,-0.2342,-0.2345,-0.2378,-0.2387,-0.2394,-0.2379,-0.2304,0,0,0,0,0,-0.2323,-0.2345,-0.2374,-0.2393,-0.2408,-0.2417,-0.2426,-0.2428,-0.2433,-0.2429,-0.2413,-0.24,-0.2399,-0.2392,-0.2391,-0.2401,-0.238,-0.2408,-0.2415,-0.2421,-0.2409,-0.2396,-0.24,-0.2359,-0.2359,-0.2359,0,0,-0.2321,-0.2343,-0.2353,-0.2391,-0.2406,-0.2438,-0.2419,-0.2445,-0.2462,-0.2424,-0.2434,-0.2425,-0.241,-0.2425,-0.2427,-0.2408,-0.2429,-0.2425,-0.243,-0.2415,-0.24,-0.2403,-0.2407,-0.2361,-0.2361,-0.2361,0,0,-0.2342,-0.2351,-0.2379,-0.2407,-0.2441,-0.2452,-0.2461,-0.2486,-0.2484,-0.2507,-0.2481,-0.2479,-0.2481,-0.2469,-0.2464,-0.251,-0.2471,-0.2514,-0.2528,-0.2517,-0.2519,-0.2521,-0.2524,-0.2526,-0.2512,-0.2512,-0.2512,0,-0.2333,-0.2371,-0.2393,-0.2433,-0.2447,-0.246,-0.249,-0.2507,-0.2526,-0.2522,-0.2517,-0.2514,-0.2501,-0.2503,-0.252,-0.2522,-0.2513,-0.2495,-0.2523,-0.2525,-0.2525,-0.2528,-0.2529,-0.2515,-0.2514,-0.2514,-0.2514,0,-0.2381,-0.2406,-0.2428,-0.2475,-0.2501,-0.2529,-0.2559,-0.2575,-0.2572,-0.2578,-0.2585,-0.2576,-0.2563,-0.2571,-0.2557,-0.256,-0.2554,-0.2537,-0.2496,-0.2532,-0.2534,-0.2534,-0.2519,-0.2518,-0.2517,-0.2516,0,0,-0.2354,-0.2441,-0.2442,-0.2461,-0.2518,-0.2539,-0.2579,-0.2603,-0.261,-0.2628,-0.263,-0.2635,-0.2614,-0.2607,-0.2591,-0.2582,-0.2592,-0.2562,-0.256,-0.2554,-0.2578,-0.2552,-0.2549,-0.2577,-0.2577,-0.2577,-0.2585,0,-0.2369,-0.2435,-0.2477,-0.252,-0.2547,-0.2576,-0.2608,-0.2633,-0.2647,-0.2659,-0.265,-0.2651,-0.2634,-0.2624,-0.2616,-0.2597,-0.2591,-0.2592,-0.2551,-0.255,-0.2513,-0.2547,-0.2462,-0.2459,-0.2585,-0.2584,-0.2584,0,-0.2382,-0.2423,-0.2469,-0.2524,-0.2537,-0.2565,-0.2591,-0.2624,-0.2655,-0.2668,-0.2669,-0.2665,-0.2659,-0.264,-0.2619,-0.262,-0.2599,-0.2586,-0.2585,-0.2534,-0.2523,-0.244,-0.2454,-0.2437,-0.2584,-0.2584,-0.2584,0,-0.232,-0.2403,-0.2427,-0.2449,-0.2526,-0.2537,-0.2568,-0.2608,-0.263,-0.2661,-0.2679,-0.2675,-0.2672,-0.2647,-0.2628,-0.2619,-0.261,-0.2592,-0.2551,-0.255,-0.2454,-0.2444,-0.243,-0.2568,-0.2568,-0.2568,-0.2568,0,-0.2297,-0.2313,-0.2398,-0.2408,-0.2423,-0.2495,-0.251,-0.2545,-0.2603,-0.2623,-0.2662,-0.2676,-0.2671,-0.267,-0.2641,-0.2604,-0.2618,-0.2554,-0.2545,-0.2475,-0.2467,-0.2427,-0.2434,-0.2569,-0.2569,-0.2569,-0.2568,0,-0.2212,-0.2276,-0.2301,-0.2376,-0.2391,-0.2394,-0.2469,-0.2494,-0.2561,-0.2592,-0.2603,-0.2673,-0.2675,-0.2677,-0.265,-0.2618,-0.2543,-0.2565,-0.2495,-0.2477,-0.2407,-0.242,-0.2368,-0.2308,-0.2513,-0.2513,-0.2512,0,-0.2173,-0.2179,-0.2244,-0.2256,-0.2283,-0.2315,-0.2343,-0.2437,-0.2473,-0.2579,-0.2587,-0.2634,-0.2645,-0.2633,-0.2586,-0.2546,-0.2516,-0.2444,-0.24,-0.2392,-0.2402,-0.2393,-0.2345,-0.2308,-0.2306,-0.2304,-0.2303,0,-0.2076,-0.2097,-0.2118,-0.2146,-0.2173,-0.2204,-0.2255,-0.2289,-0.2403,-0.2457,-0.2523,-0.2552,-0.2575,-0.2516,-0.2488,-0.2439,-0.2385,-0.2406,-0.2402,-0.2243,-0.2225,-0.2166,-0.2337,-0.2287,-0.2289,-0.229,-0.2291,-0.2291,-0.1976,-0.197,-0.1998,-0.2009,-0.2046,-0.2065,-0.2055,-0.2151,-0.2196,-0.2264,-0.2379,-0.2415,-0.2438,-0.2388,-0.236,-0.2267,-0.2272,-0.2185,-0.2207,-0.2203,-0.2124,-0.2273,-0.221,-0.2211,-0.2212,-0.2213,-0.2214,0,-0.1845,-0.1856,-0.1866,-0.1877,-0.1866,-0.1923,-0.1969,-0.1954,-0.1977,-0.2109,-0.2159,-0.2249,-0.2204,-0.2233,-0.2176,-0.2095,-0.2031,-0.2036,-0.1996,-0.1957,-0.2085,-0.2054,-0.1947,-0.1947,-0.1947,-0.1947,-0.1947,-0.1947,-0.1774,-0.1734,-0.1743,-0.1672,-0.1688,-0.1625,-0.162,-0.1633,-0.1694,-0.1774,-0.1887,-0.2016,-0.2058,-0.2207,-0.2113,-0.2019,-0.1953,-0.1884,-0.19,-0.1997,-0.2013,-0.2027,-0.1999,-0.1883,-0.1883,-0.1697,-0.1696,-0.1695]},{"header":{"parameterUnit":"m.s-1","parameterCategory":2,"la1":30.2991,"la2":30.254,"lo1":-89.0895,"lo2":-89.0444,"dy":0.0017,"dx":0.0017,"nx":28,"ny":28,"refTime":"2023-05-26T21:00:00:Z","depth":"0","parameterNumber":3,"parameterNumberName":"V-component_of_CURRENTS"},"data":[0,0,0,0,0,0,0,0,0,0,0,0,0,0,0,0,0,0,0,0,0,0,0,0,0,0,0,0,0,0,0,0,0,0,0,0,0,0,0,0,0,0,0,0,0,0,0,0,0,0,0,0,0,0,0,0,0,0,-0.0165,-0.0164,0,-0.0091,-0.009,-0.0089,-0.0042,-0.0042,-0.0042,-0.0042,0.0058,0.006,0.0063,0,0,0,0,0,0,0,0,0,0,0,0,0,-0.0195,-0.0195,-0.0165,-0.0164,-0.0163,-0.0091,-0.009,-0.0089,-0.0042,-0.0042,-0.0042,-0.0042,0.0057,0.006,0.0063,0,0,0,0,0,0,0,0,0,0,0,0,0,-0.0156,-0.0195,-0.0165,-0.0133,-0.0129,-0.0092,-0.009,-0.0089,-0.0042,-0.0042,-0.0042,-0.0042,0.0056,0.006,0.0063,0.0084,0,0,0.0075,0.0077,0,0,0,0,0,0,0,0,-0.0159,-0.0155,-0.0138,-0.0135,-0.0131,-0.0077,-0.0064,-0.003,-0.0042,-0.0073,-0.0042,-0.0042,0.0014,0.0021,0.0037,0.0088,0.0093,0.0075,0.0078,0.0079,0.008,0,0,0,0,0,0,0,-0.0162,-0.0158,-0.0134,-0.0137,-0.0133,-0.0098,-0.0093,-0.0057,-0.003,-0.0071,-0.0067,-0.0062,0.0016,0.0033,0.0039,0.0094,0.0075,0.0079,0.0081,0.0082,0.0179,0.0179,0,0,0,0,0,0,-0.0178,-0.0161,-0.0136,-0.0132,-0.0147,-0.0098,-0.0092,-0.0093,-0.0031,-0.0022,-0.0063,-0.006,0.0026,0.0035,0.0043,0.0077,0.0079,0.0083,0.0085,0.0178,0.0179,0.0179,0,0,0,0,0,0,-0.0179,-0.0177,-0.0139,-0.0145,-0.0138,-0.0099,-0.01,-0.0092,-0.0077,-0.0025,-0.0015,-0.0056,0.0027,0.0038,0.0079,0.0081,0.0085,0.0088,0.0178,0.0178,0.0179,0.0141,0,0,0,0,0,0,-0.0181,-0.0178,-0.0184,-0.0147,-0.0139,-0.0125,-0.01,-0.0091,-0.0075,-0.0071,-0.0016,-0.0007,0.0028,0.0073,0.0083,0.0086,0.0091,0.0178,0.0178,0.0179,0.0142,0.014,0.0139,0,0,0,0,0,-0.0182,-0.0196,-0.0185,-0.0182,-0.0149,-0.0125,-0.0118,-0.0087,-0.0075,-0.0072,-0.0028,-0.0009,0.0083,0.0076,0.0088,0.0092,0.0178,0.0178,0.0179,0.0143,0.014,0.0139,0,0,0,0,0,0,-0.0211,-0.0191,-0.0179,-0.0185,-0.016,-0.0118,-0.0115,-0.0092,-0.0055,-0.0052,-0.0001,0.0012,0.0047,0.0075,0.0067,0.0122,0.0132,0.0134,0.01,0.0099,0.0097,0.0079,0.0094,0,0,0,0,0,-0.0222,-0.0227,-0.0197,-0.0201,-0.0193,-0.0155,-0.0141,-0.0121,-0.0084,-0.0068,-0.0027,0.0017,0.0059,0.0082,0.0119,0.0151,0.0177,0.0161,0.0159,0.0157,0.0151,0.0192,0.0193,0.0181,0.0181,0.0181,0,0,-0.0234,-0.0224,-0.0226,-0.0208,-0.0187,-0.018,-0.0146,-0.0133,-0.012,-0.0063,-0.0032,0.0011,0.0065,0.0102,0.012,0.0127,0.0175,0.0158,0.0156,0.0151,0.0193,0.0194,0.0195,0.0181,0.0181,0.0181,0,0,-0.0267,-0.0253,-0.0271,-0.0253,-0.0231,-0.0203,-0.0203,-0.0164,-0.0139,-0.0105,-0.0058,-0.0012,0.0045,0.0092,0.0121,0.0132,0.0162,0.0139,0.0122,0.0162,0.0163,0.0164,0.02,0.0204,0.0142,0.0142,0.0142,0,-0.0285,-0.03,-0.0271,-0.0279,-0.0268,-0.0219,-0.0227,-0.0193,-0.0141,-0.0119,-0.0104,-0.0005,0.0041,0.0098,0.0105,0.0128,0.0151,0.0124,0.0158,0.016,0.0162,0.0199,0.0204,0.014,0.014,0.014,0.0141,0,-0.033,-0.0335,-0.0343,-0.0336,-0.0318,-0.0317,-0.0269,-0.0244,-0.0208,-0.0168,-0.011,-0.0038,0.0019,0.0045,0.0081,0.0122,0.0133,0.0148,0.016,0.0161,0.02,0.0206,0.0137,0.0138,0.0139,0.0139,0,0,-0.0386,-0.038,-0.038,-0.0386,-0.0348,-0.0341,-0.0313,-0.0273,-0.0256,-0.0192,-0.016,-0.0073,-0.0032,0.0004,0.006,0.0103,0.0144,0.0126,0.0129,0.0154,0.0227,0.0285,0.0299,0.0161,0.0162,0.0163,0.0249,0,-0.0431,-0.0467,-0.044,-0.0454,-0.0466,-0.0407,-0.0385,-0.0337,-0.0284,-0.0239,-0.015,-0.01,-0.0047,-0.0019,0.0034,0.0119,0.0159,0.0119,0.0228,0.0232,0.0278,0.0308,0.035,0.0434,0.0256,0.0257,0.0258,0,-0.0486,-0.05,-0.0534,-0.0519,-0.0517,-0.0511,-0.0467,-0.044,-0.0354,-0.0313,-0.0239,-0.0169,-0.0077,-0.0046,0.0097,0.0066,0.0137,0.02,0.0205,0.0275,0.0303,0.0406,0.0454,0.0594,0.0268,0.0267,0.0267,0,-0.0552,-0.0562,-0.0594,-0.0589,-0.0564,-0.0559,-0.0538,-0.0468,-0.0447,-0.036,-0.0333,-0.0214,-0.0154,-0.0048,0.0103,0.0092,0.0252,0.0255,0.0373,0.0378,0.0444,0.0454,0.0636,0.0337,0.0337,0.0336,0.0336,0,-0.0614,-0.0634,-0.0631,-0.0647,-0.0674,-0.0626,-0.0629,-0.0588,-0.0527,-0.0501,-0.038,-0.0327,-0.0154,-0.0031,0.0088,0.0268,0.0246,0.0378,0.041,0.0434,0.0441,0.059,0.064,0.034,0.0339,0.0338,0.0338,0,-0.0678,-0.0678,-0.0713,-0.0708,-0.0711,-0.0729,-0.0705,-0.0701,-0.0631,-0.0595,-0.0571,-0.0409,-0.0232,-0.005,0.0142,0.0255,0.0504,0.0472,0.0492,0.0525,0.0759,0.0804,0.0994,0.1061,0.0611,0.0613,0.0614,0,-0.0717,-0.0744,-0.0772,-0.0802,-0.0803,-0.0817,-0.0827,-0.0769,-0.0755,-0.0638,-0.0625,-0.0443,-0.029,0.0035,0.0275,0.0512,0.06,0.0668,0.0662,0.0795,0.0868,0.0886,0.0927,0.0734,0.0736,0.0739,0.074,0,-0.0777,-0.0787,-0.0816,-0.0885,-0.0915,-0.0938,-0.094,-0.0946,-0.0864,-0.0802,-0.0679,-0.0545,-0.0198,0.0132,0.0456,0.0586,0.078,0.0718,0.0857,0.0987,0.1018,0.1089,0.0648,0.0759,0.0757,0.0756,0.0755,0.0754,-0.0815,-0.0858,-0.0904,-0.0962,-0.1004,-0.1042,-0.1059,-0.1031,-0.0994,-0.0877,-0.0726,-0.0485,0.0011,0.0498,0.0658,0.1013,0.0946,0.1099,0.1144,0.115,0.1222,0.0823,0.0969,0.0969,0.0968,0.0968,0.0967,0,-0.086,-0.091,-0.0976,-0.1045,-0.1103,-0.1101,-0.112,-0.1105,-0.1055,-0.0881,-0.0712,-0.0155,0.032,0.0742,0.127,0.1438,0.1445,0.1506,0.1545,0.1566,0.1227,0.1241,0.1452,0.1452,0.1452,0.1452,0.1452,0.1452,-0.0885,-0.0961,-0.0999,-0.1109,-0.1156,-0.1206,-0.1215,-0.1168,-0.1043,-0.0737,-0.0418,-0.0144,0.05,0.1373,0.1819,0.1832,0.1958,0.1938,0.1995,0.1772,0.1737,0.1703,0.1731,0.2041,0.2042,0.2314,0.2317,0.232]}],[{"header":{"parameterUnit":"m.s-1","parameterCategory":2,"la1":30.2991,"la2":30.254,"lo1":-89.0895,"lo2":-89.0444,"dy":0.0017,"dx":0.0017,"nx":28,"ny":28,"refTime":"2023-05-26T21:00:00:Z","depth":"2","parameterNumber":2,"parameterNumberName":"U-component_of_CURRENTS"},"data":[0,0,0,0,0,0,0,0,0,0,0,0,0,0,0,0,0,0,0,0,0,0,0,0,0,0,0,0,0,0,0,0,0,0,0,0,0,0,0,0,0,0,0,0,0,0,0,0,0,0,0,0,0,0,0,0,0,0,-0.2198,-0.2199,0,-0.2215,-0.2215,-0.2215,-0.2185,-0.2185,-0.2184,-0.2183,-0.2132,-0.2132,-0.2131,0,0,0,0,0,0,0,0,0,0,0,0,0,-0.2136,-0.2137,-0.2198,-0.2199,-0.2199,-0.2215,-0.2215,-0.2215,-0.2186,-0.2185,-0.2184,-0.2183,-0.2133,-0.2132,-0.2131,0,0,0,0,0,0,0,0,0,0,0,0,0,-0.2156,-0.2137,-0.2198,-0.2188,-0.2188,-0.2215,-0.2215,-0.2215,-0.2186,-0.2185,-0.2183,-0.2182,-0.2133,-0.2132,-0.2131,-0.2147,0,0,-0.2128,-0.2127,0,0,0,0,0,0,0,0,-0.2155,-0.2158,-0.2189,-0.2189,-0.2189,-0.2199,-0.2174,-0.219,-0.2186,-0.2184,-0.2183,-0.2182,-0.2151,-0.2148,-0.2151,-0.2145,-0.2143,-0.2128,-0.2127,-0.2127,-0.2127,0,0,0,0,0,0,0,-0.2154,-0.2158,-0.2202,-0.219,-0.219,-0.2182,-0.2183,-0.2177,-0.217,-0.2184,-0.2182,-0.2189,-0.215,-0.2152,-0.215,-0.2142,-0.2128,-0.2127,-0.2126,-0.2126,-0.2163,-0.2165,0,0,0,0,0,0,-0.2159,-0.2157,-0.2202,-0.2203,-0.2172,-0.2184,-0.2185,-0.2195,-0.2172,-0.2168,-0.219,-0.2187,-0.2155,-0.2151,-0.2148,-0.2173,-0.2127,-0.2126,-0.2125,-0.2162,-0.2164,-0.2165,0,0,0,0,0,0,-0.2158,-0.2163,-0.2201,-0.2182,-0.2186,-0.2186,-0.2197,-0.2196,-0.2197,-0.2177,-0.2172,-0.2192,-0.2154,-0.2149,-0.2155,-0.217,-0.2125,-0.2125,-0.216,-0.2162,-0.2165,-0.2218,0,0,0,0,0,0,-0.2156,-0.2162,-0.2166,-0.2182,-0.2188,-0.2226,-0.2199,-0.2197,-0.2204,-0.22,-0.2178,-0.2172,-0.2152,-0.2157,-0.2155,-0.2168,-0.2124,-0.2158,-0.2161,-0.2164,-0.2214,-0.2222,-0.2229,0,0,0,0,0,-0.2154,-0.2169,-0.2166,-0.2171,-0.2194,-0.2228,-0.223,-0.2224,-0.2205,-0.2217,-0.2203,-0.2172,-0.2174,-0.2158,-0.2154,-0.2168,-0.2157,-0.216,-0.2164,-0.2211,-0.2221,-0.2228,0,0,0,0,0,0,-0.2141,-0.2168,-0.2165,-0.2186,-0.2209,-0.2224,-0.2233,-0.2229,-0.2228,-0.2221,-0.2193,-0.2188,-0.22,-0.2183,-0.2166,-0.219,-0.216,-0.2163,-0.2198,-0.2206,-0.2213,-0.22,-0.2123,0,0,0,0,0,-0.2142,-0.216,-0.2186,-0.2203,-0.2216,-0.2224,-0.2233,-0.2235,-0.2241,-0.2239,-0.2225,-0.2214,-0.2214,-0.2209,-0.2207,-0.2219,-0.2198,-0.2227,-0.2234,-0.224,-0.2229,-0.2217,-0.2221,-0.2177,-0.2177,-0.2177,0,0,-0.214,-0.2159,-0.2167,-0.2201,-0.2215,-0.2245,-0.2227,-0.2252,-0.2269,-0.2234,-0.2247,-0.2239,-0.2225,-0.2241,-0.2244,-0.2225,-0.2249,-0.2245,-0.225,-0.2235,-0.2221,-0.2225,-0.2229,-0.218,-0.2179,-0.2179,0,0,-0.2159,-0.2167,-0.2193,-0.2217,-0.2249,-0.2259,-0.2269,-0.2292,-0.2292,-0.2316,-0.2293,-0.2294,-0.2298,-0.2286,-0.2281,-0.2327,-0.2291,-0.2333,-0.235,-0.234,-0.2342,-0.2344,-0.2348,-0.235,-0.2331,-0.2332,-0.2332,0,-0.2152,-0.2185,-0.2205,-0.2241,-0.2256,-0.2269,-0.2297,-0.2313,-0.2332,-0.2331,-0.2328,-0.2329,-0.2317,-0.2321,-0.2339,-0.234,-0.2333,-0.2316,-0.2346,-0.2348,-0.2349,-0.2352,-0.2353,-0.2335,-0.2334,-0.2334,-0.2334,0,-0.2195,-0.2218,-0.2238,-0.2282,-0.2307,-0.2333,-0.2362,-0.238,-0.2381,-0.2387,-0.2398,-0.2391,-0.2382,-0.239,-0.2377,-0.2383,-0.2377,-0.2359,-0.2319,-0.2356,-0.2358,-0.2358,-0.2339,-0.2338,-0.2337,-0.2336,0,0,-0.2169,-0.225,-0.2251,-0.227,-0.2324,-0.2344,-0.2384,-0.2409,-0.2419,-0.2439,-0.2445,-0.2451,-0.2435,-0.2428,-0.2414,-0.2406,-0.242,-0.2387,-0.2386,-0.2381,-0.2408,-0.238,-0.2378,-0.2406,-0.2406,-0.2406,-0.2414,0,-0.2184,-0.2245,-0.2283,-0.2326,-0.2352,-0.2381,-0.2414,-0.2441,-0.2456,-0.2472,-0.2465,-0.2471,-0.2455,-0.2449,-0.2442,-0.2424,-0.2419,-0.2419,-0.238,-0.2379,-0.2341,-0.2376,-0.2182,-0.217,-0.2414,-0.2414,-0.2414,0,-0.2195,-0.2233,-0.2278,-0.2333,-0.2347,-0.2376,-0.2406,-0.2439,-0.2472,-0.2487,-0.2492,-0.249,-0.2487,-0.2469,-0.245,-0.2451,-0.2431,-0.2417,-0.2417,-0.2364,-0.235,-0.2168,-0.2161,-0.2414,-0.2414,-0.2414,-0.2414,0,-0.2139,-0.2217,-0.2242,-0.2264,-0.2339,-0.2353,-0.2385,-0.2428,-0.2451,-0.2485,-0.2505,-0.2504,-0.2505,-0.2481,-0.2463,-0.2454,-0.2445,-0.2426,-0.2384,-0.2383,-0.2193,-0.2175,-0.2405,-0.2405,-0.2405,-0.2405,-0.2405,0,-0.2118,-0.2135,-0.2217,-0.2227,-0.2248,-0.2317,-0.2338,-0.2374,-0.2433,-0.2455,-0.2494,-0.2509,-0.2506,-0.2505,-0.2476,-0.2438,-0.2454,-0.2388,-0.2379,-0.2212,-0.2196,-0.238,-0.2378,-0.2405,-0.2405,-0.2405,-0.2405,0,-0.204,-0.21,-0.2128,-0.2202,-0.2219,-0.2227,-0.2303,-0.233,-0.2397,-0.243,-0.2443,-0.251,-0.2512,-0.2513,-0.2487,-0.2453,-0.242,-0.24,-0.2218,-0.2188,-0.2363,-0.2363,-0.2349,-0.2348,-0.2347,-0.2347,-0.2346,0,-0.2004,-0.2012,-0.2078,-0.2092,-0.212,-0.2156,-0.2186,-0.2279,-0.2314,-0.2418,-0.2426,-0.2474,-0.2479,-0.2465,-0.2403,-0.2358,-0.2403,-0.2163,-0.2104,-0.2363,-0.2356,-0.2357,-0.2358,-0.1883,-0.1879,-0.1875,-0.1873,0,-0.1915,-0.1938,-0.196,-0.1991,-0.2021,-0.2053,-0.2105,-0.2138,-0.2248,-0.2298,-0.2359,-0.2383,-0.239,-0.2263,-0.2228,-0.2168,-0.2156,-0.2091,-0.2384,-0.1941,-0.1927,-0.192,-0.1935,-0.1841,-0.1844,-0.1846,-0.1848,-0.1849,-0.1825,-0.1821,-0.185,-0.1865,-0.1903,-0.1922,-0.1912,-0.1998,-0.2037,-0.2078,-0.2194,-0.2165,-0.2174,-0.2018,-0.1939,-0.1864,-0.2,-0.1891,-0.1899,-0.1912,-0.187,-0.1856,-0.175,-0.1752,-0.1754,-0.1756,-0.1758,0,-0.1702,-0.1716,-0.1728,-0.1741,-0.1731,-0.1789,-0.183,-0.18,-0.1807,-0.1882,-0.1906,-0.1739,-0.1688,-0.1695,-0.1538,-0.1532,-0.1489,-0.1464,-0.139,-0.1422,-0.1451,-0.1383,-0.1135,-0.1133,-0.1131,-0.113,0,0,-0.1636,-0.16,-0.1608,-0.1542,-0.1561,-0.1495,-0.1488,-0.1465,-0.1476,-0.1437,-0.1425,-0.1575,-0.1639,-0.1379,-0.1332,-0.1205,-0.1295,-0.1148,-0.1644,-0.1587,-0.1613,-0.1692,-0.1625,0,0,0,0,0]},{"header":{"parameterUnit":"m.s-1","parameterCategory":2,"la1":30.2991,"la2":30.254,"lo1":-89.0895,"lo2":-89.0444,"dy":0.0017,"dx":0.0017,"nx":28,"ny":28,"refTime":"2023-05-26T21:00:00:Z","depth":"2","parameterNumber":3,"parameterNumberName":"V-component_of_CURRENTS"},"data":[0,0,0,0,0,0,0,0,0,0,0,0,0,0,0,0,0,0,0,0,0,0,0,0,0,0,0,0,0,0,0,0,0,0,0,0,0,0,0,0,0,0,0,0,0,0,0,0,0,0,0,0,0,0,0,0,0,0,-0.016,-0.016,0,-0.0093,-0.0092,-0.0091,-0.0044,-0.0044,-0.0044,-0.0044,0.0053,0.0055,0.0057,0,0,0,0,0,0,0,0,0,0,0,0,0,-0.0183,-0.0184,-0.016,-0.0159,-0.0159,-0.0093,-0.0092,-0.009,-0.0044,-0.0044,-0.0044,-0.0044,0.0052,0.0055,0.0058,0,0,0,0,0,0,0,0,0,0,0,0,0,-0.0149,-0.0184,-0.016,-0.0129,-0.0126,-0.0093,-0.0092,-0.009,-0.0044,-0.0044,-0.0044,-0.0044,0.0051,0.0054,0.0058,0.0075,0,0,0.0069,0.0071,0,0,0,0,0,0,0,0,-0.0151,-0.0148,-0.0134,-0.0131,-0.0127,-0.0078,-0.0065,-0.0034,-0.0044,-0.0073,-0.0044,-0.0043,0.001,0.0017,0.0031,0.0079,0.0084,0.0069,0.0071,0.0073,0.0074,0,0,0,0,0,0,0,-0.0153,-0.015,-0.0131,-0.0134,-0.013,-0.0096,-0.0091,-0.0058,-0.0032,-0.0071,-0.0068,-0.0063,0.0013,0.0028,0.0034,0.0085,0.0069,0.0072,0.0075,0.0076,0.0163,0.0164,0,0,0,0,0,0,-0.0169,-0.0153,-0.0134,-0.013,-0.0141,-0.0096,-0.0091,-0.0093,-0.0033,-0.0024,-0.0063,-0.0061,0.0022,0.003,0.0038,0.0069,0.0073,0.0076,0.0078,0.0163,0.0164,0.0164,0,0,0,0,0,0,-0.017,-0.0169,-0.0136,-0.0141,-0.0134,-0.0097,-0.0099,-0.0092,-0.0078,-0.0028,-0.0018,-0.0058,0.0022,0.0033,0.0071,0.0073,0.0078,0.0081,0.0163,0.0163,0.0164,0.0128,0,0,0,0,0,0,-0.0171,-0.0169,-0.0176,-0.0142,-0.0135,-0.0125,-0.0099,-0.0091,-0.0076,-0.0073,-0.002,-0.001,0.0023,0.0065,0.0075,0.0078,0.0084,0.0163,0.0163,0.0164,0.0129,0.0127,0.0125,0,0,0,0,0,-0.0172,-0.0187,-0.0177,-0.0174,-0.0145,-0.0125,-0.0119,-0.0089,-0.0076,-0.0074,-0.0032,-0.0012,0.0074,0.0069,0.0079,0.0084,0.0163,0.0163,0.0164,0.0129,0.0127,0.0125,0,0,0,0,0,0,-0.02,-0.0183,-0.0171,-0.0179,-0.0157,-0.0118,-0.0116,-0.0094,-0.006,-0.0056,-0.0006,0.0006,0.0039,0.0066,0.0059,0.011,0.012,0.0122,0.009,0.0088,0.0087,0.0073,0.0087,0,0,0,0,0,-0.0211,-0.0217,-0.019,-0.0196,-0.0189,-0.0153,-0.0141,-0.0122,-0.0088,-0.0073,-0.0033,0.001,0.0049,0.0071,0.0106,0.0136,0.0164,0.0145,0.0143,0.0141,0.0137,0.0183,0.0185,0.0165,0.0165,0.0165,0,0,-0.0223,-0.0214,-0.0217,-0.0202,-0.0183,-0.0178,-0.0145,-0.0135,-0.0122,-0.0067,-0.0038,0.0002,0.0054,0.0088,0.0105,0.0113,0.0162,0.0142,0.014,0.0137,0.0183,0.0185,0.0187,0.0165,0.0165,0.0165,0,0,-0.0256,-0.0244,-0.0263,-0.0246,-0.0227,-0.0201,-0.0202,-0.0165,-0.0142,-0.011,-0.0065,-0.0021,0.0032,0.0078,0.0106,0.0115,0.0147,0.012,0.0106,0.015,0.0152,0.0154,0.0191,0.0196,0.0123,0.0123,0.0123,0,-0.0273,-0.0289,-0.0263,-0.0272,-0.0261,-0.0216,-0.0225,-0.0193,-0.0145,-0.0122,-0.011,-0.0015,0.0029,0.0086,0.009,0.0111,0.0135,0.011,0.0147,0.015,0.0153,0.019,0.0196,0.0122,0.0122,0.0122,0.0122,0,-0.0318,-0.0324,-0.0332,-0.0327,-0.031,-0.0311,-0.0266,-0.0243,-0.0209,-0.0169,-0.0113,-0.0046,0.0012,0.0034,0.0067,0.0111,0.0121,0.0136,0.015,0.0152,0.0191,0.0199,0.0119,0.012,0.012,0.0121,0,0,-0.0373,-0.0369,-0.0369,-0.0373,-0.034,-0.0333,-0.0307,-0.0267,-0.0248,-0.0189,-0.0154,-0.0073,-0.0033,0.0002,0.0055,0.0099,0.0144,0.012,0.0123,0.0151,0.0234,0.0279,0.0291,0.0161,0.0163,0.0163,0.0253,0,-0.0416,-0.0451,-0.0427,-0.044,-0.0451,-0.0394,-0.0373,-0.0326,-0.0275,-0.0227,-0.0141,-0.0093,-0.0045,-0.0018,0.0036,0.0118,0.0161,0.0117,0.0232,0.0235,0.0271,0.0301,0.026,0.0339,0.0261,0.0262,0.0263,0,-0.0471,-0.0483,-0.0516,-0.0498,-0.0496,-0.0491,-0.0445,-0.0419,-0.0333,-0.0292,-0.0218,-0.015,-0.0059,-0.0033,0.0111,0.0078,0.0147,0.0208,0.0213,0.0272,0.0295,0.0326,0.0356,0.0276,0.0275,0.0274,0.0273,0,-0.0533,-0.0541,-0.057,-0.0566,-0.054,-0.0535,-0.0513,-0.0443,-0.0421,-0.0332,-0.0304,-0.0185,-0.0127,-0.002,0.0122,0.0111,0.0272,0.0275,0.038,0.0384,0.0381,0.0383,0.0361,0.0361,0.0361,0.036,0.036,0,-0.059,-0.0608,-0.0605,-0.062,-0.0643,-0.0597,-0.0596,-0.0555,-0.0492,-0.0465,-0.0346,-0.0293,-0.0124,-0.0003,0.0112,0.0282,0.0269,0.0386,0.0416,0.0368,0.0368,0.0336,0.0331,0.0364,0.0363,0.0362,0.0362,0,-0.0651,-0.0651,-0.0683,-0.0676,-0.0679,-0.0694,-0.0669,-0.0662,-0.0592,-0.0554,-0.053,-0.0372,-0.0201,-0.0024,0.0165,0.0272,0.0425,0.0481,0.0415,0.0436,0.0505,0.0497,0.0605,0.0607,0.0609,0.0611,0.0613,0,-0.0688,-0.0713,-0.0739,-0.0767,-0.0768,-0.0779,-0.0787,-0.0728,-0.0713,-0.0597,-0.0582,-0.0407,-0.0264,0.005,0.0269,0.0495,0.0485,0.0575,0.0556,0.0515,0.0533,0.0522,0.0513,0.0534,0.0535,0.0535,0.0536,0,-0.0746,-0.0756,-0.0783,-0.0848,-0.0875,-0.0895,-0.0895,-0.0899,-0.0817,-0.0757,-0.064,-0.0514,-0.0193,0.0076,0.038,0.0495,0.0541,0.0595,0.0579,0.0482,0.0457,0.0471,0.0462,0.0541,0.054,0.054,0.054,0.0539,-0.0783,-0.0824,-0.0867,-0.0923,-0.0962,-0.0996,-0.1011,-0.0982,-0.0946,-0.0835,-0.0696,-0.0483,-0.0205,0.0234,0.0445,0.0627,0.0625,0.0656,0.065,0.0645,0.0625,0.0605,0.0712,0.0712,0.0713,0.0713,0.0713,0,-0.0827,-0.0875,-0.0937,-0.1002,-0.1055,-0.1054,-0.1071,-0.1052,-0.1005,-0.0852,-0.07,-0.0398,-0.0074,0.02,0.0507,0.07,0.0661,0.0708,0.0624,0.0618,0.0613,0.0588,0.0668,0.0668,0.0669,0.0669,0,0,-0.0852,-0.0923,-0.0959,-0.1063,-0.1109,-0.1155,-0.1164,-0.111,-0.0999,-0.0844,-0.0673,-0.0413,-0.0061,0.0147,0.0389,0.0542,0.0522,0.0539,0.0556,0.0423,0.0415,0.0565,0.0518,0,0,0,0,0]}],[{"header":{"parameterUnit":"m.s-1","parameterCategory":2,"la1":30.2991,"la2":30.254,"lo1":-89.0895,"lo2":-89.0444,"dy":0.0017,"dx":0.0017,"nx":28,"ny":28,"refTime":"2023-05-26T21:00:00:Z","depth":"4","parameterNumber":2,"parameterNumberName":"U-component_of_CURRENTS"},"data":[0,0,0,0,0,0,0,0,0,0,0,0,0,0,0,0,0,0,0,0,0,0,0,0,0,0,0,0,0,0,0,0,0,0,0,0,0,0,0,0,0,0,0,0,0,0,0,0,0,0,0,0,0,0,0,0,0,0,-0.1527,-0.1528,0,-0.1573,-0.1574,-0.1574,-0.1599,-0.1599,-0.16,-0.16,-0.1625,-0.1626,-0.1626,0,0,0,0,0,0,0,0,0,0,0,0,0,-0.1459,-0.146,-0.1527,-0.1528,-0.1529,-0.1573,-0.1574,-0.1574,-0.1599,-0.1599,-0.16,-0.16,-0.1625,-0.1626,-0.1626,0,0,0,0,0,0,0,0,0,0,0,0,0,-0.1494,-0.1461,-0.1527,-0.1548,-0.1551,-0.1573,-0.1574,-0.1574,-0.1599,-0.1599,-0.16,-0.16,-0.1625,-0.1626,-0.1626,-0.1623,0,0,-0.1628,-0.1629,0,0,0,0,0,0,0,0,-0.1492,-0.1496,-0.1544,-0.1547,-0.155,-0.1582,-0.1559,-0.159,-0.1599,-0.1579,-0.16,-0.16,-0.161,-0.1612,-0.1617,-0.1624,-0.1626,-0.1628,-0.1629,-0.1629,-0.1629,0,0,0,0,0,0,0,-0.1489,-0.1494,-0.1544,-0.1545,-0.1548,-0.1554,-0.156,-0.1565,-0.159,-0.1581,-0.1583,-0.1591,-0.1611,-0.1617,-0.1618,-0.1626,-0.1628,-0.1629,-0.1629,-0.163,-0.1712,-0.1714,0,0,0,0,0,0,-0.1487,-0.1492,-0.1542,-0.1545,-0.1523,-0.1556,-0.1561,-0.157,-0.159,-0.1595,-0.1591,-0.1592,-0.1615,-0.1617,-0.1619,-0.1686,-0.1629,-0.163,-0.163,-0.171,-0.1712,-0.1714,0,0,0,0,0,0,-0.1485,-0.1491,-0.154,-0.1521,-0.1528,-0.1557,-0.1566,-0.1571,-0.1601,-0.1599,-0.1602,-0.1619,-0.1616,-0.1618,-0.1655,-0.1684,-0.163,-0.1631,-0.1708,-0.1711,-0.1713,-0.1775,0,0,0,0,0,0,-0.1483,-0.149,-0.1506,-0.1521,-0.1529,-0.1574,-0.1566,-0.1571,-0.1604,-0.1607,-0.1623,-0.1625,-0.1616,-0.1654,-0.1656,-0.1684,-0.1631,-0.1706,-0.1709,-0.1712,-0.177,-0.1779,-0.1786,0,0,0,0,0,-0.1481,-0.1498,-0.1507,-0.1513,-0.1546,-0.1576,-0.1581,-0.16,-0.1606,-0.1627,-0.1643,-0.1626,-0.1676,-0.1656,-0.1658,-0.1687,-0.1704,-0.1708,-0.1712,-0.1767,-0.1777,-0.1786,0,0,0,0,0,0,-0.1477,-0.1503,-0.1512,-0.1538,-0.1565,-0.1581,-0.1605,-0.1616,-0.1645,-0.1654,-0.1647,-0.1651,-0.1693,-0.1685,-0.1663,-0.1722,-0.1688,-0.1692,-0.1729,-0.1739,-0.1747,-0.1734,-0.1632,0,0,0,0,0,-0.1483,-0.1506,-0.153,-0.1554,-0.157,-0.1592,-0.161,-0.1626,-0.1648,-0.1663,-0.1676,-0.1691,-0.1706,-0.172,-0.1732,-0.1763,-0.1743,-0.1784,-0.1792,-0.1799,-0.1792,-0.1789,-0.1795,-0.1727,-0.1727,-0.1727,0,0,-0.1488,-0.1506,-0.152,-0.1555,-0.1577,-0.161,-0.1605,-0.1644,-0.1674,-0.166,-0.1713,-0.1721,-0.1722,-0.176,-0.1778,-0.176,-0.1813,-0.1804,-0.181,-0.1798,-0.1793,-0.1799,-0.1805,-0.173,-0.173,-0.1729,0,0,-0.1506,-0.1528,-0.1554,-0.1582,-0.1624,-0.1639,-0.1657,-0.1693,-0.1716,-0.1764,-0.1761,-0.1787,-0.182,-0.1822,-0.1825,-0.1885,-0.1856,-0.1899,-0.1928,-0.1927,-0.1931,-0.1935,-0.1935,-0.1938,-0.1902,-0.1903,-0.1903,0,-0.1512,-0.1544,-0.1568,-0.1602,-0.1627,-0.1656,-0.169,-0.172,-0.1766,-0.1784,-0.1794,-0.1841,-0.1845,-0.1871,-0.1896,-0.19,-0.1896,-0.189,-0.1935,-0.1938,-0.1941,-0.194,-0.1942,-0.1906,-0.1906,-0.1905,-0.1905,0,-0.1542,-0.1579,-0.16,-0.165,-0.1683,-0.1719,-0.1759,-0.18,-0.1832,-0.1854,-0.1903,-0.1913,-0.1934,-0.1949,-0.1942,-0.197,-0.1961,-0.1944,-0.1905,-0.1951,-0.1948,-0.1949,-0.1911,-0.191,-0.1909,-0.1908,0,0,-0.1515,-0.1603,-0.1611,-0.1644,-0.171,-0.1736,-0.1797,-0.1845,-0.1881,-0.1929,-0.1966,-0.1999,-0.2002,-0.2005,-0.2003,-0.2006,-0.2032,-0.1991,-0.1989,-0.1981,-0.2035,-0.1917,-0.1908,-0.2026,-0.2026,-0.2027,-0.2029,0,-0.1528,-0.1595,-0.1638,-0.1704,-0.1738,-0.1789,-0.184,-0.1892,-0.1935,-0.1982,-0.1998,-0.2034,-0.2025,-0.204,-0.2044,-0.2034,-0.2037,-0.2033,-0.1998,-0.1997,-0.1878,-0.1905,-0.2028,-0.203,-0.203,-0.2031,-0.2031,0,-0.1529,-0.1577,-0.1642,-0.1727,-0.1748,-0.1797,-0.1871,-0.1921,-0.1988,-0.2022,-0.2057,-0.2073,-0.2094,-0.2078,-0.2077,-0.2078,-0.2061,-0.2049,-0.2049,-0.1911,-0.1882,-0.1971,-0.2033,-0.2033,-0.2033,-0.2033,-0.2033,0,-0.1473,-0.1572,-0.1623,-0.1653,-0.1757,-0.18,-0.1855,-0.1932,-0.1972,-0.2044,-0.2078,-0.2106,-0.2125,-0.2112,-0.2095,-0.2092,-0.2085,-0.2072,-0.195,-0.1942,-0.202,-0.2015,-0.2062,-0.2062,-0.2062,-0.2062,-0.2062,0,-0.1443,-0.1488,-0.1609,-0.1633,-0.1695,-0.1781,-0.1846,-0.1904,-0.1988,-0.2024,-0.209,-0.2107,-0.2135,-0.2136,-0.2111,-0.2031,-0.2096,-0.1949,-0.1929,-0.205,-0.2049,-0.2022,-0.2017,-0.2062,-0.2062,-0.2062,-0.2062,0,-0.1363,-0.1445,-0.151,-0.1631,-0.1669,-0.1712,-0.1831,-0.1876,-0.1968,-0.2017,-0.204,-0.2115,-0.2109,-0.2121,-0.2102,-0.2034,-0.198,-0.1937,-0.2076,-0.2066,-0.1838,-0.1838,-0.1793,-0.1789,-0.1785,-0.1782,-0.1779,0,-0.1325,-0.1352,-0.1483,-0.1524,-0.1583,-0.1666,-0.1721,-0.184,-0.1878,-0.1995,-0.1998,-0.2048,-0.2074,-0.1955,-0.1983,-0.1924,-0.1898,-0.1868,-0.1837,-0.1822,-0.1809,-0.1813,-0.1817,-0.1774,-0.1773,-0.1772,-0.1771,0,-0.1241,-0.1301,-0.1355,-0.1434,-0.1505,-0.1568,-0.1652,-0.1672,-0.1796,-0.1904,-0.1896,-0.189,-0.1886,-0.1862,-0.1834,-0.1791,-0.1884,-0.183,-0.1837,-0.1807,-0.1799,-0.1789,-0.1797,-0.1758,-0.176,-0.1761,-0.1762,0,-0.1175,-0.1193,-0.1269,-0.1323,-0.1406,-0.1435,-0.1504,-0.1551,-0.1602,-0.174,-0.1731,-0.1788,-0.1863,-0.1792,-0.1765,-0.1716,-0.1682,-0.1623,-0.164,-0.1654,-0.1605,-0.1573,-0.1438,0,0,0,0,0,-0.1098,-0.1106,-0.1152,-0.1207,-0.1286,-0.1319,-0.1437,-0.1513,-0.1641,-0.1591,-0.1655,-0.1641,-0.1611,-0.1644,-0.1558,-0.1694,-0.1686,-0.1589,-0.1627,-0.1689,-0.1703,-0.1657,0,0,0,0,0,0,-0.1048,-0.1086,-0.1104,-0.1084,-0.1099,-0.116,-0.1227,-0.1325,-0.1305,-0.1443,-0.143,-0.1529,-0.1516,-0.1615,-0.1515,-0.1523,-0.1513,-0.1632,-0.1628,-0.168,-0.1694,-0.1705,-0.1663,0,0,0,0,0]},{"header":{"parameterUnit":"m.s-1","parameterCategory":2,"la1":30.2991,"la2":30.254,"lo1":-89.0895,"lo2":-89.0444,"dy":0.0017,"dx":0.0017,"nx":28,"ny":28,"refTime":"2023-05-26T21:00:00:Z","depth":"4","parameterNumber":3,"parameterNumberName":"V-component_of_CURRENTS"},"data":[0,0,0,0,0,0,0,0,0,0,0,0,0,0,0,0,0,0,0,0,0,0,0,0,0,0,0,0,0,0,0,0,0,0,0,0,0,0,0,0,0,0,0,0,0,0,0,0,0,0,0,0,0,0,0,0,0,0,-0.0138,-0.0138,0,-0.0098,-0.0097,-0.0097,-0.0061,-0.006,-0.006,-0.006,0.0018,0.002,0.0021,0,0,0,0,0,0,0,0,0,0,0,0,0,-0.0138,-0.0139,-0.0138,-0.0138,-0.0138,-0.0098,-0.0097,-0.0097,-0.0061,-0.006,-0.006,-0.006,0.0017,0.0019,0.0022,0,0,0,0,0,0,0,0,0,0,0,0,0,-0.0121,-0.0139,-0.0138,-0.0116,-0.0114,-0.0098,-0.0097,-0.0097,-0.0061,-0.006,-0.006,-0.006,0.0017,0.0019,0.0022,0.003,0,0,0.003,0.0031,0,0,0,0,0,0,0,0,-0.0122,-0.0121,-0.012,-0.0118,-0.0115,-0.0085,-0.0069,-0.0053,-0.0061,-0.0079,-0.006,-0.0059,-0.0015,-0.0009,-0.0001,0.0034,0.0037,0.003,0.0032,0.0033,0.0034,0,0,0,0,0,0,0,-0.0123,-0.0122,-0.0121,-0.0119,-0.0117,-0.0093,-0.009,-0.0066,-0.0048,-0.0078,-0.0075,-0.0074,-0.0013,-0.0004,0.0001,0.0038,0.003,0.0033,0.0034,0.0035,0.0096,0.0096,0,0,0,0,0,0,-0.0134,-0.0124,-0.0122,-0.012,-0.0119,-0.0093,-0.009,-0.0094,-0.0049,-0.0042,-0.0074,-0.0072,-0.0008,-0.0002,0.0004,0.0027,0.0033,0.0036,0.0037,0.0096,0.0096,0.0096,0,0,0,0,0,0,-0.0135,-0.0135,-0.0124,-0.0121,-0.0119,-0.0094,-0.0099,-0.0093,-0.0085,-0.0047,-0.0039,-0.0071,-0.0008,0.0,0.0028,0.003,0.0037,0.0039,0.0096,0.0096,0.0096,0.0066,0,0,0,0,0,0,-0.0135,-0.0135,-0.0143,-0.0123,-0.0119,-0.0121,-0.0099,-0.0093,-0.0086,-0.0083,-0.0042,-0.0034,-0.0007,0.0024,0.0031,0.0034,0.0042,0.0096,0.0096,0.0096,0.0067,0.0065,0.0063,0,0,0,0,0,-0.0135,-0.0151,-0.0143,-0.0143,-0.013,-0.0122,-0.0118,-0.0097,-0.0086,-0.0087,-0.0054,-0.0036,0.0028,0.0026,0.0034,0.0038,0.0096,0.0096,0.0096,0.0068,0.0065,0.0063,0,0,0,0,0,0,-0.0154,-0.0148,-0.014,-0.0153,-0.014,-0.0117,-0.0119,-0.0103,-0.0078,-0.0075,-0.0034,-0.0024,-0.0002,0.0021,0.0018,0.0055,0.0064,0.0066,0.004,0.0038,0.0036,0.0033,0.0044,0,0,0,0,0,-0.0163,-0.0173,-0.0159,-0.0168,-0.0166,-0.0142,-0.0137,-0.0123,-0.01,-0.0089,-0.0058,-0.0025,0.0004,0.0023,0.0047,0.007,0.0101,0.0077,0.0075,0.0073,0.0076,0.0127,0.013,0.0095,0.0095,0.0095,0,0,-0.0173,-0.0171,-0.0176,-0.0173,-0.0162,-0.0163,-0.0138,-0.0136,-0.0128,-0.0084,-0.0064,-0.0035,0.0006,0.0031,0.0044,0.0053,0.0098,0.0073,0.0071,0.0075,0.0127,0.0131,0.0134,0.0095,0.0095,0.0095,0,0,-0.0201,-0.0197,-0.0216,-0.0208,-0.0199,-0.0183,-0.0185,-0.0163,-0.0146,-0.0127,-0.009,-0.0055,-0.0019,0.0021,0.0044,0.0046,0.0081,0.0047,0.0044,0.0093,0.0096,0.01,0.0136,0.0143,0.0053,0.0053,0.0053,0,-0.0214,-0.0232,-0.0218,-0.023,-0.0224,-0.0195,-0.0205,-0.0185,-0.0154,-0.0133,-0.0128,-0.0052,-0.0021,0.0031,0.0031,0.0044,0.007,0.0049,0.0091,0.0095,0.0099,0.0135,0.0144,0.0051,0.0051,0.0052,0.0052,0,-0.0254,-0.0263,-0.0272,-0.0275,-0.0267,-0.0271,-0.0242,-0.0227,-0.0203,-0.0173,-0.0126,-0.0076,-0.0027,-0.0013,0.001,0.0057,0.0065,0.0077,0.0096,0.0101,0.0139,0.0148,0.0049,0.005,0.005,0.005,0,0,-0.0293,-0.0301,-0.0303,-0.0307,-0.029,-0.0288,-0.0272,-0.0242,-0.0224,-0.0182,-0.0147,-0.0089,-0.0054,-0.0025,0.0015,0.0061,0.011,0.0077,0.0081,0.0113,0.021,0.0187,0.0195,0.0129,0.013,0.0131,0.0222,0,-0.0326,-0.0359,-0.0347,-0.0362,-0.0373,-0.0334,-0.032,-0.0284,-0.0245,-0.0204,-0.0132,-0.0092,-0.006,-0.0037,0.0017,0.0087,0.0133,0.0083,0.0202,0.0205,0.0185,0.0205,0.0136,0.0229,0.0231,0.0233,0.0234,0,-0.0367,-0.0381,-0.0412,-0.0402,-0.0402,-0.0404,-0.0367,-0.0349,-0.0277,-0.0244,-0.0177,-0.0123,-0.004,-0.0024,0.011,0.0076,0.0137,0.0191,0.0196,0.0193,0.02,0.0227,0.0251,0.0249,0.0248,0.0247,0.0246,0,-0.0405,-0.0421,-0.0447,-0.0446,-0.0434,-0.0434,-0.0421,-0.0365,-0.0346,-0.0268,-0.0243,-0.0133,-0.0084,0.0018,0.013,0.0121,0.0271,0.0276,0.0317,0.0315,0.0322,0.0317,0.0366,0.0366,0.0366,0.0365,0.0365,0,-0.0439,-0.0458,-0.0472,-0.0485,-0.0508,-0.0478,-0.0479,-0.0447,-0.0395,-0.0369,-0.0271,-0.0223,-0.0073,0.0032,0.0131,0.0253,0.0277,0.0322,0.0342,0.0305,0.0298,0.0328,0.0322,0.0369,0.0368,0.0367,0.0367,0,-0.0471,-0.0483,-0.0515,-0.0523,-0.0532,-0.0547,-0.0539,-0.053,-0.0476,-0.0439,-0.0418,-0.0284,-0.0146,0.0004,0.0175,0.0244,0.0367,0.0401,0.0348,0.0363,0.0378,0.0369,0.0458,0.0458,0.0458,0.0458,0.0458,0,-0.049,-0.0513,-0.0555,-0.0585,-0.0596,-0.0614,-0.0626,-0.0584,-0.0569,-0.0475,-0.0458,-0.0319,-0.0218,0.0015,0.0167,0.0363,0.0381,0.0438,0.0412,0.0378,0.039,0.0381,0.0373,0.0458,0.0458,0.0458,0.0458,0,-0.0519,-0.0541,-0.0568,-0.0636,-0.067,-0.0694,-0.0703,-0.0698,-0.0636,-0.0592,-0.0482,-0.0343,-0.0185,0.0004,0.0158,0.0295,0.0401,0.0439,0.044,0.0416,0.038,0.0389,0.0381,0.0458,0.0458,0.0458,0.0458,0,-0.0539,-0.0571,-0.062,-0.0672,-0.0724,-0.0754,-0.0751,-0.0718,-0.0692,-0.0583,-0.0548,-0.0359,-0.0242,-0.0031,0.0113,0.0248,0.0273,0.03,0.0309,0.031,0.0236,0.0167,0.0205,0,0,0,0,0,-0.0553,-0.0593,-0.065,-0.0706,-0.0757,-0.0785,-0.0792,-0.0773,-0.0717,-0.0653,-0.0597,-0.0445,-0.0208,-0.0093,0.0036,0.01,0.0285,0.0253,0.0317,0.0459,0.0459,0.0395,0,0,0,0,0,0,-0.0565,-0.0623,-0.0652,-0.072,-0.0765,-0.0812,-0.0819,-0.0785,-0.0733,-0.066,-0.053,-0.0439,-0.0205,-0.0288,0.003,0.0074,0.0126,0.0375,0.0377,0.0459,0.0459,0.0459,0.0393,0,0,0,0,0]}]]